Fort Campbell, KY

10:29 PM CDT on May 24, 2018 (GMT -0500)
Campbell Army Air Field

Weather History for KHOP - April, 2014

Change the Weather History Date:

Monday, April 14, 2014

  Actual Average Record
Temperature  
Mean Temperature 56 °F -  
Max Temperature 70 °F 68 °F 87 °F (2006)
Min Temperature 41 °F 47 °F 32 °F (1997)
Degree Days  
Heating Degree Days 10    
Growing Degree Days 6 (Base 50)    
Moisture  
Dew Point 55 °F    
Average Humidity 96    
Maximum Humidity 100    
Minimum Humidity 68    
Precipitation  
Precipitation 0.91 in - - ()
Sea Level Pressure  
Sea Level Pressure 29.81 in    
Wind  
Wind Speed 14 mph (West)    
Max Wind Speed 28 mph    
Max Gust Speed 36 mph    
Visibility 8 miles    
Events Rain , Thunderstorm    
Averages and records for this station are not official NWS values.
T = Trace of Precipitation, MM = Missing Value Source: NWS Daily Summary

Daily Weather History Graph

Daily Weather History Graph

Search for Another Location

Airport or City:

Astronomy

Apr. 14, 2014 Rise Set
Actual Time 6:17 AM CDT 7:23 PM CDT
Civil Twilight 5:50 AM CDT 7:50 PM CDT
Nautical Twilight 5:19 AM CDT 8:21 PM CDT
Astronomical Twilight 4:46 AM CDT 8:54 PM CDT
Moon 7:02 PM CDT (4/14) 5:48 AM CDT (4/14)
Length of Visible Light 13h 59m
Length of Day
13h 06m
Full, 100% of the Moon is Illuminated
Apr 14
Full
Apr 15
Full
Apr 22
Last Quarter
Apr 29
New
May 6
First Quarter

Hourly Weather History & Observations

Time (CDT) Temp. Windchill Dew Point Humidity Pressure Visibility Wind Dir Wind Speed Gust Speed Precip Events Conditions
12:02 AM 69.8 °F - 60.8 °F 73% 29.74 in 10.0 mi South 18.4 mph 27.6 mph N/A   Light Drizzle
12:15 AM 69.8 °F - 59.0 °F 68% 29.74 in 10.0 mi South 16.1 mph 25.3 mph N/A   Overcast
12:21 AM 69.8 °F - 59.0 °F 68% 29.73 in 10.0 mi South 12.7 mph 25.3 mph N/A   Light Drizzle
12:34 AM 69.8 °F - 59.0 °F 68% 29.75 in 10.0 mi SSW 13.8 mph 23.0 mph N/A   Mostly Cloudy
12:44 AM 69.8 °F - 59.0 °F 68% 29.76 in 10.0 mi SSW 20.7 mph 27.6 mph N/A   Light Drizzle
12:55 AM 68.0 °F - 62.6 °F 83% 29.76 in 9.0 mi SSW 15.0 mph 26.5 mph N/A Rain Light Rain
12:58 AM 69.1 °F - 61.7 °F 77% 29.75 in 9.0 mi SW 20.7 mph 25.3 mph 0.02 in Rain Rain
1:03 AM 68.0 °F - 62.6 °F 83% 29.78 in 8.0 mi WSW 21.9 mph 25.3 mph N/A Rain Light Rain
1:07 AM 66.2 °F - 64.4 °F 94% 29.80 in 2.5 mi West 26.5 mph 35.7 mph N/A Rain Rain
1:08 AM 66.2 °F - 64.4 °F 94% 29.80 in 1.8 mi West 24.2 mph 35.7 mph N/A Rain Heavy Rain
1:09 AM 64.4 °F - 64.4 °F 100% 29.80 in 1.2 mi WSW 19.6 mph 35.7 mph N/A Rain Heavy Rain
1:11 AM 64.4 °F - 64.4 °F 100% 29.80 in 1.0 mi WSW 18.4 mph 35.7 mph N/A Rain Heavy Rain
1:13 AM 62.6 °F - 62.6 °F 100% 29.80 in 1.0 mi WSW 17.3 mph 35.7 mph N/A Rain Heavy Rain
1:15 AM 62.6 °F - 62.6 °F 100% 29.80 in 1.0 mi WSW 18.4 mph 35.7 mph N/A Rain Heavy Rain
1:17 AM 62.6 °F - 62.6 °F 100% 29.80 in 1.2 mi SW 18.4 mph 33.4 mph N/A Rain Heavy Rain
1:18 AM 62.6 °F - 62.6 °F 100% 29.80 in 1.5 mi SW 17.3 mph 28.8 mph N/A Rain Heavy Rain
1:20 AM 60.8 °F - 60.8 °F 100% 29.80 in 2.5 mi SW 16.1 mph 28.8 mph N/A Rain Heavy Rain
1:21 AM 60.8 °F - 60.8 °F 100% 29.80 in 3.0 mi SW 15.0 mph 24.2 mph N/A Rain Rain
1:25 AM 60.8 °F - 60.8 °F 100% 29.79 in 5.0 mi SW 12.7 mph 24.2 mph N/A Rain Rain
1:45 AM 60.8 °F - 60.8 °F 100% 29.78 in 10.0 mi WSW 9.2 mph - N/A Rain Light Rain
1:46 AM 60.8 °F - 60.8 °F 100% 29.78 in 10.0 mi WSW 9.2 mph - N/A Rain Light Rain
1:48 AM 60.8 °F - 60.8 °F 100% 29.78 in 10.0 mi SW 6.9 mph - N/A   Drizzle
1:49 AM 60.8 °F - 60.8 °F 100% 29.78 in 9.0 mi SW 8.1 mph - N/A Rain Light Rain
1:58 AM 60.4 °F - 60.4 °F 100% 29.78 in 7.0 mi SW 10.4 mph - 0.39 in Rain Light Rain
2:05 AM 60.8 °F - 60.8 °F 100% 29.77 in 9.0 mi SW 5.8 mph - N/A Rain Light Rain
2:34 AM 60.8 °F - 60.8 °F 100% 29.74 in 10.0 mi SE 5.8 mph - N/A   Mostly Cloudy
2:40 AM 60.8 °F - 60.8 °F 100% 29.73 in 10.0 mi SE 4.6 mph - N/A   Light Drizzle
2:58 AM 60.4 °F - 60.4 °F 100% 29.71 in 10.0 mi Variable 4.6 mph - 0.01 in   Light Drizzle
3:09 AM 60.8 °F - 60.8 °F 100% 29.72 in 10.0 mi SE 5.8 mph - N/A   Mostly Cloudy
3:58 AM 61.5 °F - 61.5 °F 100% 29.70 in 10.0 mi South 10.4 mph - 0.01 in   Overcast
4:26 AM 64.4 °F - 64.4 °F 100% 29.71 in 10.0 mi South 17.3 mph 31.1 mph N/A   Light Drizzle
4:58 AM 63.3 °F - 63.3 °F 100% 29.73 in 10.0 mi SSW 19.6 mph 28.8 mph 0.02 in   Light Drizzle
5:03 AM 62.6 °F - 62.6 °F 100% 29.75 in 8.0 mi WSW 19.6 mph 27.6 mph N/A Rain Light Rain
5:08 AM 62.6 °F - 62.6 °F 100% 29.74 in 4.0 mi SW 18.4 mph 29.9 mph N/A Rain Heavy Rain
5:09 AM 62.6 °F - 62.6 °F 100% 29.74 in 4.0 mi SW 18.4 mph 29.9 mph N/A Rain Heavy Rain
5:10 AM 62.6 °F - 62.6 °F 100% 29.74 in 4.0 mi SW 19.6 mph 29.9 mph N/A Rain Heavy Rain
5:14 AM 62.6 °F - 62.6 °F 100% 29.74 in 5.0 mi SW 12.7 mph 29.9 mph N/A Rain Light Rain
5:58 AM 59.9 °F - 59.9 °F 100% 29.70 in 8.0 mi South 5.8 mph - 0.12 in Rain Light Rain
6:39 AM 59.0 °F - 59.0 °F 100% 29.73 in 10.0 mi South 4.6 mph - N/A   Overcast
6:58 AM 59.4 °F - 59.4 °F 100% 29.73 in 10.0 mi South 4.6 mph - 0.02 in   Overcast
7:01 AM 59.0 °F - 59.0 °F 100% 29.74 in 10.0 mi South 4.6 mph - N/A   Overcast
7:02 AM 59.0 °F - 59.0 °F 100% 29.74 in 10.0 mi South 4.6 mph - N/A   Overcast
7:24 AM 59.0 °F - 59.0 °F 100% 29.76 in 10.0 mi South 4.6 mph - N/A   Overcast
7:29 AM 59.0 °F - 59.0 °F 100% 29.76 in 10.0 mi SW 4.6 mph - N/A   Overcast
7:46 AM 60.8 °F - 60.8 °F 100% 29.76 in 10.0 mi South 6.9 mph - N/A   Overcast
7:55 AM 60.8 °F - 60.8 °F 100% 29.77 in 10.0 mi SSW 8.1 mph - N/A   Overcast
7:58 AM 60.3 °F - 60.3 °F 100% 29.77 in 10.0 mi SSW 9.2 mph - 0.01 in   Overcast
8:53 AM 62.6 °F - 62.6 °F 100% 29.78 in 10.0 mi SSW 12.7 mph - N/A   Mostly Cloudy
8:55 AM 62.6 °F - 62.6 °F 100% 29.78 in 10.0 mi SSW 11.5 mph - N/A   Mostly Cloudy
8:58 AM 63.1 °F - 63.1 °F 100% 29.79 in 10.0 mi SW 13.8 mph - N/A   Mostly Cloudy
9:46 AM 62.6 °F - 62.6 °F 100% 29.80 in 10.0 mi SW 13.8 mph - N/A   Overcast
9:48 AM 62.6 °F - 62.6 °F 100% 29.80 in 10.0 mi SW 11.5 mph - N/A   Overcast
9:53 AM 62.6 °F - 62.6 °F 100% 29.80 in 10.0 mi SW 13.8 mph - N/A   Overcast
9:58 AM 63.0 °F - 63.0 °F 100% 29.81 in 10.0 mi SW 13.8 mph - N/A   Overcast
10:00 AM 62.6 °F - 62.6 °F 100% 29.81 in 10.0 mi SW 15.0 mph - N/A   Overcast
10:04 AM 64.4 °F - 64.4 °F 100% 29.81 in 10.0 mi SW 13.8 mph - N/A   Overcast
10:06 AM 64.4 °F - 64.4 °F 100% 29.81 in 10.0 mi SW 12.7 mph - N/A   Overcast
10:07 AM 64.4 °F - 64.4 °F 100% 29.81 in 10.0 mi SW 15.0 mph - N/A   Overcast
10:08 AM 64.4 °F - 64.4 °F 100% 29.81 in 10.0 mi SW 16.1 mph - N/A   Overcast
10:09 AM 64.4 °F - 64.4 °F 100% 29.81 in 10.0 mi WSW 16.1 mph - N/A   Overcast
10:30 AM 62.6 °F - 62.6 °F 100% 29.81 in 10.0 mi WSW 17.3 mph - N/A   Overcast
10:42 AM 64.4 °F - 64.4 °F 100% 29.81 in 10.0 mi WSW 12.7 mph - N/A   Overcast
10:55 AM 64.4 °F - 64.4 °F 100% 29.82 in 10.0 mi WSW 10.4 mph - N/A   Overcast
10:58 AM 63.9 °F - 63.9 °F 100% 29.82 in 10.0 mi SW 11.5 mph - N/A   Overcast
11:35 AM 66.2 °F - 64.4 °F 94% 29.81 in 10.0 mi SW 11.5 mph - N/A   Overcast
11:54 AM 66.2 °F - 64.4 °F 94% 29.81 in 10.0 mi WSW 16.1 mph - N/A   Overcast
11:58 AM 65.3 °F - 64.0 °F 96% 29.81 in 10.0 mi WSW 16.1 mph - N/A   Overcast
12:24 PM 66.2 °F - 64.4 °F 94% 29.81 in 10.0 mi WSW 12.7 mph - N/A   Overcast
12:39 PM 64.4 °F - 62.6 °F 94% 29.79 in 10.0 mi West 6.9 mph - N/A   Overcast
12:40 PM 64.4 °F - 62.6 °F 94% 29.79 in 10.0 mi West 5.8 mph - N/A   Overcast
12:58 PM 67.3 °F - 64.4 °F 90% 29.78 in 10.0 mi WSW 9.2 mph - N/A   Mostly Cloudy
1:21 PM 69.8 °F - 62.6 °F 78% 29.78 in 10.0 mi WSW 15.0 mph - N/A   Mostly Cloudy
1:25 PM 69.8 °F - 62.6 °F 78% 29.78 in 10.0 mi WSW 10.4 mph - N/A   Mostly Cloudy
1:32 PM 68.0 °F - 62.6 °F 83% 29.78 in 10.0 mi WSW 13.8 mph - N/A   Mostly Cloudy
1:36 PM 68.0 °F - 60.8 °F 78% 29.77 in 10.0 mi WSW 13.8 mph - N/A   Mostly Cloudy
1:49 PM 68.0 °F - 62.6 °F 83% 29.76 in 10.0 mi WSW 12.7 mph - N/A   Overcast
1:52 PM 69.8 °F - 60.8 °F 73% 29.76 in 10.0 mi West 11.5 mph - N/A   Mostly Cloudy
1:58 PM 69.1 °F - 61.3 °F 76% 29.76 in 10.0 mi WSW 11.5 mph - N/A   Overcast
2:19 PM 68.0 °F - 60.8 °F 78% 29.75 in 10.0 mi West 11.5 mph - N/A   Mostly Cloudy
2:30 PM 68.0 °F - 60.8 °F 78% 29.74 in 10.0 mi WSW 9.2 mph - N/A   Mostly Cloudy
2:58 PM 70.5 °F - 60.4 °F 70% 29.73 in 10.0 mi West 11.5 mph - N/A   Scattered Clouds
3:58 PM 67.6 °F - 59.7 °F 76% 29.70 in 10.0 mi WNW 10.4 mph - N/A   Mostly Cloudy
4:43 PM 59.0 °F - 59.0 °F 100% 29.74 in 10.0 mi NW 19.6 mph 25.3 mph N/A Thunderstorm Thunderstorm
4:51 PM 57.2 °F - 57.2 °F 100% 29.77 in 9.0 mi WNW 27.6 mph 31.1 mph N/A Rain , Thunderstorm Light Thunderstorms and Rain
4:58 PM 57.4 °F - 57.4 °F 100% 29.74 in 6.0 mi NNW 16.1 mph 31.1 mph 0.01 in Rain , Thunderstorm Thunderstorms and Rain
4:59 PM 55.4 °F - 55.4 °F 100% 29.75 in 6.0 mi NNW 19.6 mph 31.1 mph N/A Rain Rain
5:02 PM 55.4 °F - 55.4 °F 100% 29.75 in 7.0 mi NNW 12.7 mph 25.3 mph N/A Rain , Thunderstorm Light Rain
5:30 PM 53.6 °F - 53.6 °F 100% 29.78 in 4.0 mi NNW 13.8 mph - N/A Rain Light Rain
5:35 PM 53.6 °F - 53.6 °F 100% 29.78 in 3.0 mi NW 15.0 mph 17.3 mph N/A Rain Heavy Rain
5:46 PM 51.8 °F - 51.8 °F 100% 29.79 in 7.0 mi NW 12.7 mph 24.2 mph N/A Rain Light Rain
5:48 PM 51.8 °F - 51.8 °F 100% 29.79 in 8.0 mi NW 12.7 mph 24.2 mph N/A Rain Light Rain
5:53 PM 51.8 °F - 51.8 °F 100% 29.80 in 10.0 mi NW 17.3 mph 26.5 mph N/A Rain Light Rain
5:58 PM 51.4 °F - 51.4 °F 100% 29.81 in 10.0 mi NW 13.8 mph 26.5 mph 0.09 in Rain Light Rain
5:59 PM 51.8 °F - 51.8 °F 100% 29.80 in 10.0 mi NW 15.0 mph 26.5 mph N/A Rain Light Rain
6:00 PM 51.8 °F - 51.8 °F 100% 29.80 in 10.0 mi NW 13.8 mph 26.5 mph N/A Rain Light Rain
6:01 PM 51.8 °F - 51.8 °F 100% 29.80 in 10.0 mi NW 13.8 mph 26.5 mph N/A Rain Light Rain
6:07 PM 50.0 °F - 50.0 °F 100% 29.81 in 8.0 mi NW 15.0 mph 23.0 mph N/A Rain Rain
6:17 PM 50.0 °F - 50.0 °F 100% 29.80 in 9.0 mi NW 15.0 mph 20.7 mph N/A Rain Rain
6:20 PM 50.0 °F - 50.0 °F 100% 29.80 in 9.0 mi NW 15.0 mph 21.9 mph N/A Rain Rain
6:22 PM 50.0 °F - 50.0 °F 100% 29.80 in 9.0 mi NW 17.3 mph 21.9 mph N/A Rain Rain
6:31 PM 48.2 °F - 48.2 °F 100% 29.81 in 8.0 mi NW 18.4 mph 24.2 mph N/A Rain Rain
6:44 PM 48.2 °F - 48.2 °F 100% 29.80 in 8.0 mi NW 12.7 mph 23.0 mph N/A Rain Rain
6:51 PM 46.4 °F 41.1 °F 46.4 °F 100% 29.81 in 9.0 mi NW 11.5 mph 19.6 mph N/A Rain Light Rain
6:53 PM 46.4 °F 41.5 °F 46.4 °F 100% 29.81 in 9.0 mi NNW 10.4 mph 19.6 mph N/A Rain Light Rain
6:57 PM 46.4 °F 41.5 °F 46.4 °F 100% 29.82 in 10.0 mi NW 10.4 mph 18.4 mph N/A Rain Light Rain
6:58 PM 46.4 °F 41.5 °F 46.4 °F 100% 29.83 in 10.0 mi NW 10.4 mph 18.4 mph 0.08 in Rain Light Rain
7:00 PM 46.4 °F 41.5 °F 46.4 °F 100% 29.82 in 10.0 mi NW 10.4 mph 18.4 mph N/A Rain Light Rain
7:03 PM 48.2 °F - 48.2 °F 100% 29.82 in 10.0 mi NW 10.4 mph - N/A Rain Rain
7:26 PM 46.4 °F 40.7 °F 46.4 °F 100% 29.84 in 10.0 mi NW 12.7 mph 17.3 mph N/A Rain Light Rain
7:51 PM 46.4 °F 41.1 °F 46.4 °F 100% 29.83 in 10.0 mi NNW 11.5 mph 21.9 mph N/A   Light Drizzle
7:54 PM 46.4 °F 41.9 °F 46.4 °F 100% 29.82 in 10.0 mi NNW 9.2 mph - N/A   Light Drizzle
7:57 PM 46.4 °F 40.7 °F 46.4 °F 100% 29.83 in 10.0 mi NW 12.7 mph 17.3 mph N/A   Overcast
7:58 PM 46.4 °F 40.7 °F 46.4 °F 100% 29.84 in 10.0 mi NW 12.7 mph 17.3 mph 0.04 in   Overcast
8:03 PM 46.4 °F 41.1 °F 46.4 °F 100% 29.83 in 10.0 mi NNW 11.5 mph 17.3 mph N/A   Overcast
8:21 PM 46.4 °F 40.7 °F 46.4 °F 100% 29.84 in 10.0 mi NW 12.7 mph 20.7 mph N/A   Overcast
8:39 PM 44.6 °F 38.4 °F 44.6 °F 100% 29.87 in 8.0 mi NW 12.7 mph - N/A   Light Drizzle
8:44 PM 44.6 °F 39.7 °F 44.6 °F 100% 29.87 in 5.0 mi NW 9.2 mph - N/A   Drizzle
8:45 PM 44.6 °F 38.8 °F 44.6 °F 100% 29.87 in 5.0 mi NNW 11.5 mph - N/A   Drizzle
8:53 PM 44.6 °F 38.4 °F 44.6 °F 100% 29.88 in 4.0 mi NW 12.7 mph 18.4 mph N/A Rain Light Rain
8:58 PM 44.8 °F 39.4 °F 44.8 °F 100% 29.89 in 4.0 mi NNW 10.4 mph - 0.01 in Rain Rain
9:20 PM 44.6 °F 38.4 °F 44.6 °F 100% 29.88 in 10.0 mi NW 12.7 mph 21.9 mph N/A   Heavy Drizzle
9:27 PM 44.6 °F 38.4 °F 44.6 °F 100% 29.91 in 10.0 mi NW 12.7 mph - N/A Rain Light Rain
9:29 PM 44.6 °F 38.1 °F 44.6 °F 100% 29.91 in 9.0 mi NW 13.8 mph - N/A Rain Light Rain
9:37 PM 44.6 °F 38.4 °F 44.6 °F 100% 29.90 in 9.0 mi NW 12.7 mph 23.0 mph N/A Rain Light Rain
9:51 PM 42.8 °F 37.0 °F 42.8 °F 100% 29.90 in 9.0 mi NW 10.4 mph - N/A   Heavy Drizzle
9:57 PM 42.8 °F 35.8 °F 42.8 °F 100% 29.91 in 10.0 mi NNW 13.8 mph - N/A   Light Drizzle
9:58 PM 42.8 °F 35.8 °F 42.8 °F 100% 29.92 in 10.0 mi NNW 13.8 mph - 0.02 in   Light Drizzle
10:03 PM 42.8 °F 35.8 °F 42.8 °F 100% 29.91 in 10.0 mi NW 13.8 mph 20.7 mph N/A   Light Drizzle
10:04 PM 42.8 °F 36.6 °F 42.8 °F 100% 29.91 in 10.0 mi NNW 11.5 mph 20.7 mph N/A   Light Drizzle
10:07 PM 42.8 °F 36.2 °F 42.8 °F 100% 29.91 in 10.0 mi NNW 12.7 mph 20.7 mph N/A   Light Drizzle
10:08 PM 42.8 °F 36.6 °F 42.8 °F 100% 29.91 in 10.0 mi NNW 11.5 mph 20.7 mph N/A   Drizzle
10:23 PM 42.8 °F 36.2 °F 42.8 °F 100% 29.92 in 7.0 mi NW 12.7 mph 23.0 mph N/A   Drizzle
10:28 PM 42.8 °F 36.2 °F 42.8 °F 100% 29.92 in 8.0 mi NW 12.7 mph 23.0 mph N/A   Drizzle
10:33 PM 42.8 °F 35.4 °F 42.8 °F 100% 29.92 in 8.0 mi NW 15.0 mph 19.6 mph N/A Rain Rain
10:36 PM 42.8 °F 36.6 °F 42.8 °F 100% 29.92 in 7.0 mi NNW 11.5 mph 20.7 mph N/A Rain Rain
10:58 PM 42.3 °F 33.8 °F 42.3 °F 100% 29.93 in 8.0 mi NW 18.4 mph 20.7 mph 0.03 in Rain Light Rain
11:03 PM 41.0 °F 33.1 °F 41.0 °F 100% 29.92 in 7.0 mi NNW 15.0 mph 20.7 mph N/A Rain Light Rain
11:12 PM 41.0 °F 33.5 °F 41.0 °F 100% 29.93 in 8.0 mi NW 13.8 mph 20.7 mph N/A Rain Rain
11:17 PM 41.0 °F 33.9 °F 41.0 °F 100% 29.94 in 8.0 mi NW 12.7 mph 21.9 mph N/A Rain Light Rain
11:19 PM 41.0 °F 33.5 °F 41.0 °F 100% 29.94 in 9.0 mi NW 13.8 mph 21.9 mph N/A Rain Light Rain
11:21 PM 41.0 °F 33.5 °F 41.0 °F 100% 29.93 in 9.0 mi NW 13.8 mph 21.9 mph N/A Rain Light Rain
11:22 PM 41.0 °F 33.9 °F 41.0 °F 100% 29.93 in 9.0 mi NNW 12.7 mph 21.9 mph N/A Rain Light Rain
11:48 PM 41.0 °F 33.1 °F 41.0 °F 100% 29.94 in 7.0 mi NW 15.0 mph 21.9 mph N/A Rain Light Rain
11:50 PM 41.0 °F 33.9 °F 41.0 °F 100% 29.94 in 7.0 mi NW 12.7 mph 21.9 mph N/A Rain Light Rain
11:57 PM 41.0 °F 32.5 °F 41.0 °F 100% 29.94 in 8.0 mi NNW 17.3 mph 25.3 mph N/A Rain Light Rain
11:58 PM 41.0 °F 32.2 °F 41.0 °F 100% 29.95 in 8.0 mi NW 18.4 mph 25.3 mph 0.03 in Rain Light Rain